Regional Weather Roundup
Issued by NWS Bismarck, ND

Home | Current Version | Previous Version | Text Only | Print | Product List | Glossary On
Versions: 1 2 3 4 5 6 7 8 9 10 11 12 13 14 15 16 17 18 19 20 21 22 23 24 25 26 27 28 29 30 31 32 33 34 35 36 37 38 39 40 41 42 43 44 45 46 47 48 49 50
000
ASUS43 KBIS 271502
RWRBIS

NWR BROADCAST TEXT
NATIONAL WEATHER SERVICE BISMARCK ND
1000 AM CDT TUE JUN 27 2017

NOTE: "FAIR" INDICATES FEW OR NO CLOUDS BELOW 12,000 FEET WITH NO
SIGNIFICANT WEATHER AND/OR OBSTRUCTIONS TO VISIBILITY.


CITY           SKY/WX    TMP DP  RH WIND       PRES   REMARKS
WILLISTON      MOSUNNY   72  44  36 S12G22    29.61F
MINOT          PTSUNNY   68  44  42 S20G28    29.65F
MINOT AFB      MOSUNNY   69  44  41 S24       29.64F
BISMARCK       CLOUDY    69  49  48 S24G31    29.74F
DICKINSON      SUNNY     69  44  40 S17G26    29.66F
GARRISON         N/A     62  46  55 S16       29.71F
HETTINGER ARPT SUNNY     71  48  43 S17       29.71F
JAMESTOWN      CLOUDY    62  44  51 S20G26    29.83F
HAZEN          FAIR      66  45  45 S14G24    29.73F
LINTON         FAIR     N/A N/A N/A S30G39    29.79F
MANDAN         FAIR      68  48  49 S22G32    29.74F
STANLEY        FAIR      64  43  45 S30       29.64F
TIOGA          FAIR      66  45  45 S25G31    29.61F
WATFORD CITY   FAIR      66  45  45 S12G17    29.64F
$$

CITY           SKY/WX    TMP DP  RH WIND       PRES   REMARKS
GRAND FORKS    CLOUDY    66  47  50 S16G24    29.86F
GRAND FORKS AF PTSUNNY   69  45  41 S20       29.85F
DEVILS LAKE    CLOUDY    68  46  45 S15       29.80F
FARGO          PTSUNNY   69  45  41 S13       29.91F
CAVALIER       FAIR      66  45  45 S14G23    29.81F
GRAFTON        FAIR      66  45  45 S17       29.85F
GWINNER        CLOUDY    66  45  45 S22       29.91F
LANGDON        FAIR      66  48  52 S17G24    29.81F
ROLLA            N/A     68  45  42 S21G30    29.75F
$$

CITY           SKY/WX    TMP DP  RH WIND       PRES   REMARKS
ABERDEEN       SUNNY     67  47  48 S22G32    29.90F
MOBRIDGE       MOSUNNY   71  49  45 S24G33    29.77F
BUFFALO          N/A     74  52  46 S13       29.62F
RAPID CITY     SUNNY     72  56  57 S35G45    29.71F
GLASGOW        CLOUDY    75  43  31 VRB5      29.59S
SIDNEY         SUNNY     72  46  39 S12       29.59F
WOLF POINT     SUNNY     77  43  29 CALM      29.57F
GLENDIVE       SUNNY     74  45  35 S13       29.62F
MILES CITY     MOSUNNY   76  41  28 W5        29.63S
BAKER          SUNNY     73  45  36 S5        29.68F
$$

CITY           SKY/WX    TMP DP  RH WIND       PRES   REMARKS
BILLINGS       CLOUDY    73  47  39 W9        29.77S
GREAT FALLS    CLOUDY    71  49  45 SW14G24   29.76S
$$




USA.gov is the U.S. government's official web portal to all federal, state and local government web resources and services.